Simultaneous Nadir Overpasses (SNOs) Predictions

Prediction of SNOs between GOES-15 and METOP-B Satellite Orbit:

Table of predicted SNOs for the next 14.0 days since TLE Epoch: 11/25/2023
Index Date Time (GOES-15) GOES-15 Lat,Lon METOP-B Lat,Lon Distance(km) Time Diff (sec)
1 11/26/2023 05:20:06 -0.22, 61.39 -0.25, 61.43 5.93 80
2 11/28/2023 17:18:23 0.21, 61.42 0.29, 61.84 47.58 80
3 11/30/2023 05:37:13 -0.19, 61.31 0.70, 57.28 458.94 80
4 12/01/2023 05:19:13 -0.19, 61.28 -0.43, 62.27 113.10 80
5 12/02/2023 17:38:10 0.18, 61.33 -0.64, 57.68 415.19 80
6 12/03/2023 17:14:50 0.18, 61.31 0.50, 62.68 155.83 80
7 12/05/2023 05:33:39 -0.17, 61.20 0.53, 58.12 351.62 80
8 12/06/2023 05:15:38 -0.17, 61.18 -0.61, 63.11 220.30 80
9 12/07/2023 17:34:36 0.16, 61.22 -0.44, 58.52 307.37 80
10 12/08/2023 17:11:15 0.17, 61.21 0.71, 63.51 263.29 80
